• MPC Preparation (Info)

  • MPEC 1995-Y01 : 1995 WQ5

    The following Minor Planet Electronic Circular may be linked-to from your own Web pages, but must not otherwise be redistributed electronically.

    A form allowing access to any MPEC is at the bottom of this page.


    Read MPEC 1995-X02 Read MPEC 1995-Y02


    M.P.E.C. 1995-Y01                                Issued 1995 Dec. 17, 20:36 UT
    
         The Minor Planet Electronic Circulars contain information on unusual
             minor planets and routine data on comets.  They are published
       on behalf of Commission 20 of the International Astronomical Union by the
              Minor Planet Center, Smithsonian Astrophysical Observatory,
                              Cambridge, MA 02138, U.S.A.
    
                 BMARSDEN@CFA.HARVARD.EDU or GWILLIAMS@CFA.HARVARD.EDU
    
                                       1995 WQ5
    
                               Revision to MPEC 1995-W06
    
    Observations:
         J95W05Q  C1995 11 28.91500 04 27 23.77 -01 47 25.5                      587
         J95W05Q  C1995 11 28.92194 04 27 23.07 -01 47 11.0                      587
         J95W05Q  C1995 11 29.68316 04 26 17.23 -01 22 45.9                      360
         J95W05Q  C1995 11 29.68594 04 26 16.99 -01 22 40.7                      360
         J95W05Q  C1995 11 29.69167 04 26 16.46 -01 22 29.4                      360
         J95W05Q  C1995 11 29.93032 04 25 56.54 -01 14 52.1                      587
         J95W05Q  C1995 11 29.93588 04 25 56.06 -01 14 41.5          17.6 V      587
         J95W05Q  C1995 12 05.11377 04 18 49.59 +01 33 11.9          17.0 R      817
         J95W05Q  C1995 12 05.13206 04 18 48.22 +01 33 44.0          17.0 R      817
         J95W05Q  C1995 12 05.15287 04 18 46.37 +01 34 26.2          17.2 R      817
         J95W05Q  C1995 12 08.62719 04 14 23.06 +03 27 24.6                      413
         J95W05Q  C1995 12 08.62980 04 14 22.85 +03 27 29.8                      413
         J95W05Q  C1995 12 08.63237 04 14 22.65 +03 27 34.9                      413
         J95W05Q  C1995 12 13.62066 04 08 48.81 +06 06 12.2                      360
         J95W05Q  C1995 12 13.62708 04 08 48.44 +06 06 25.0                      360
         J95W05Q  C1995 12 14.55506 04 07 52.87 +06 35 18.4          17.6 V      400
         J95W05Q  C1995 12 14.57735 04 07 51.55 +06 36 00.4                      400
    
    Observer details:
    360 Kuma Kogen.  Observer A. Nakamura.  0.60-m f/6.0 Ritchey-Chretien + CCD.
    400 Kitami.  Observer K. Endate.  Measurer K. Watanabe.  0.25-m f/3.4
        hyperboloid astrocamera + CCD.
    413 Siding Spring Observatory.  Observers R. H. McNaught, G. J. Garradd,
        D. I. Steel.  Measurer R. H. McNaught.  1.0-m reflector + CCD.
    587 Sormano.  Observers P. Sicoli, F. Manca, P. Chiavenna, M. Cavagna,
        A. Testa, G. Ventre, E. Colzani, V. Giuliani.  0.5-m reflector + CCD.
    817 Sudbury.  Observer D. di Cicco.  0.41-m Schmidt-Cassegrain + CCD.
    
    Orbital elements:
    1995 WQ5
    Epoch 1995 Nov. 19.0 TT = JDT 2450040.5                 Nakano
    M  18.50870              (2000.0)            P               Q
    n   0.27425256     Peri.  283.57763     +0.91059013     -0.20401264
    a   2.3462210      Node    89.11409     +0.34149917     +0.86127133
    e   0.4114131      Incl.   21.06907     -0.23281738     +0.46539288
    P   3.59           H    16.5          G   0.15
    From 36 observations 1995 Nov. 19-Dec. 14.
    
    Ephemeris:
    1995 WQ5                 a,e,i = 2.35, 0.41, 21                  q = 1.3810
    Date    TT    R. A. (2000) Decl.     Delta      r     Elong.  Phase     V
    1995 12 09    04 13.94   +03 39.3    0.638    1.593   157.7    13.5    17.3
    1995 12 14    04 08.43   +06 18.1    0.667    1.615   155.3    14.7    17.5
    1995 12 19    04 03.95   +08 50.6    0.703    1.637   151.7    16.6    17.7
    1995 12 24    04 00.61   +11 14.4    0.744    1.660   147.4    18.6    17.9
    1995 12 29    03 58.47   +13 28.5    0.791    1.683   142.9    20.6    18.1
    1996 01 03    03 57.54   +15 32.4    0.842    1.707   138.3    22.5    18.4
    1996 01 08    03 57.74   +17 26.1    0.898    1.731   133.8    24.2    18.6
    1996 01 13    03 59.02   +19 10.2    0.957    1.755   129.4    25.6    18.8
    1996 01 18    04 01.31   +20 45.3    1.020    1.779   125.2    26.9    19.0
    1996 01 23    04 04.52   +22 12.1    1.087    1.804   121.1    27.8    19.2
    1996 01 28    04 08.59   +23 31.3    1.156    1.829   117.2    28.6    19.4
    1996 02 02    04 13.42   +24 43.6    1.227    1.854   113.4    29.2    19.6
    1996 02 07    04 18.94   +25 49.6    1.301    1.879   109.7    29.6    19.7
    1996 02 12    04 25.07   +26 49.8    1.377    1.905   106.2    29.8    19.9
    1996 02 17    04 31.76   +27 44.7    1.454    1.930   102.8    30.0    20.0
    1996 02 22    04 38.95   +28 34.5    1.533    1.955    99.4    29.9    20.2
    1996 02 27    04 46.59   +29 19.7    1.612    1.981    96.2    29.8    20.3
    1996 03 03    04 54.62   +30 00.5    1.693    2.006    93.0    29.6    20.4
    1996 03 08    05 02.99   +30 37.1    1.774    2.031    89.9    29.3    20.6
    1996 03 13    05 11.68   +31 09.7    1.856    2.056    86.9    28.9    20.7
    1996 03 18    05 20.63   +31 38.5    1.937    2.082    83.9    28.4    20.8
    1996 03 23    05 29.82   +32 03.5    2.019    2.107    80.9    27.9    20.9
    1996 03 28    05 39.23   +32 25.0    2.101    2.131    78.1    27.3    21.0
    1996 04 02    05 48.80   +32 43.1    2.182    2.156    75.2    26.6    21.1
    
                           (Last issue was M.P.E.C. 1995-X02)
    
    Gareth V. Williams                                            M.P.E.C. 1995-Y01
    

    Read MPEC 1995-X02 Read MPEC 1995-Y02


    MPEC number:

    Enter an MPEC number in one of the following forms:

    • 1997-B01 (the full form)
    • J97B01 (the packed version of the full form)
    • B01 (the abbreviated form)